| time (UTC) | temp F | wind direction | speed knots | gust knots | rain 1hr in | rain 24hr in | rain mn in | humidity % | barometer mb |
| 20260502211536 | 59 | 34 | 0.0 | 1.7 | 0.00 | 0.00 | 0.00 | 39 | 1010.1 |
| 20260502210036 | 58 | 288 | 0.0 | 1.7 | 0.00 | 0.00 | 0.00 | 38 | 1010.0 |
| 20260502204527 | 59 | 256 | 0.0 | 1.7 | 0.00 | 0.00 | 0.00 | 39 | 1010.0 |
| 20260502203023 | 59 | 347 | 0.0 | 4.3 | 0.00 | 0.00 | 0.00 | 40 | 1010.0 |
| 20260502201522 | 59 | 7 | 0.0 | 2.6 | 0.00 | 0.00 | 0.00 | 38 | 1010.2 |
| 20260502200014 | 59 | 312 | 0.9 | 1.7 | 0.00 | 0.00 | 0.00 | 38 | 1010.3 |
| 20260502194510 | 59 | 219 | 0.9 | 3.5 | 0.00 | 0.00 | 0.00 | 39 | 1010.6 |
| 20260502193005 | 59 | 72 | 0.9 | 4.3 | 0.00 | 0.00 | 0.00 | 38 | 1010.7 |
| 20260502191606 | 60 | 267 | 0.0 | 1.7 | 0.00 | 0.00 | 0.00 | 40 | 1011.1 |
| 20260502190056 | 59 | 56 | 0.0 | 2.6 | 0.00 | 0.00 | 0.00 | 38 | 1011.1 |
| 20260502184551 | 58 | 354 | 0.0 | 2.6 | 0.00 | 0.00 | 0.00 | 39 | 1011.3 |
| 20260502183050 | 58 | 90 | 0.0 | 2.6 | 0.00 | 0.00 | 0.00 | 38 | 1011.3 |
| 20260502181542 | 59 | 261 | 0.0 | 1.7 | 0.00 | 0.00 | 0.00 | 43 | 1011.4 |
| 20260502163018 | 57 | 51 | 1.7 | 4.3 | 0.00 | 0.00 | 0.00 | 46 | 1012.5 |
| 20260502161506 | 56 | 345 | 0.0 | 2.6 | 0.00 | 0.00 | 0.00 | 47 | 1012.5 |
| 20260502151556 | 54 | 333 | 0.0 | 2.6 | 0.00 | 0.00 | 0.00 | 49 | 1012.7 |
| 20260502123002 | 51 | 11 | 0.0 | 1.7 | 0.00 | 0.00 | 0.00 | 1 | 1012.6 |
| 20260502121556 | 51 | 351 | 0.0 | 0.9 | 0.00 | 0.00 | 0.00 | 1 | 1012.5 |
| 20260502120104 | 50 | 8 | 0.0 | 0.9 | 0.00 | 0.00 | 0.00 | 1 | 1012.3 |
| 20260502114615 | 50 | 311 | 0.0 | 0.9 | 0.00 | 0.00 | 0.00 | 1 | 1012.4 |
| 20260502113045 | 50 | 333 | 0.0 | 0.9 | 0.00 | 0.00 | 0.00 | 1 | 1012.3 |
| 20260502111538 | 50 | 262 | 0.0 | 0.9 | 0.00 | 0.00 | 0.00 | 1 | 1012.4 |
| 20260502110034 | 49 | 262 | 0.0 | 0.0 | 0.00 | 0.00 | 0.00 | 1 | 1012.2 |
| 20260502104530 | 48 | 259 | 0.0 | 0.9 | 0.00 | 0.00 | 0.00 | 1 | 1012.3 |
| 20260502103025 | 47 | 285 | 0.0 | 0.0 | 0.00 | 0.00 | 0.00 | 1 | 1011.9 |
| 20260502101520 | 47 | 285 | 0.0 | 0.0 | 0.00 | 0.00 | 0.00 | 1 | 1011.8 |
| 20260502091503 | 49 | 44 | 0.0 | 0.0 | 0.00 | 0.00 | 0.00 | 1 | 1011.4 |
| 20260502071534 | 51 | 271 | 0.0 | 0.0 | 0.00 | 0.00 | 0.00 | 23 | 1011.5 |
| 20260502070034 | 51 | 271 | 0.0 | 0.0 | 0.00 | 0.00 | 0.00 | 29 | 1011.5 |
| 20260502064541 | 52 | 271 | 0.0 | 0.0 | 0.00 | 0.00 | 0.00 | 36 | 1011.5 |
| 20260502063026 | 53 | 271 | 0.0 | 0.9 | 0.00 | 0.00 | 0.00 | 44 | 1011.6 |
| 20260502061527 | 53 | 261 | 0.0 | 0.9 | 0.00 | 0.00 | 0.00 | 45 | 1011.9 |
| 20260502060035 | 52 | 256 | 0.0 | 1.7 | 0.00 | 0.00 | 0.00 | 45 | 1012.0 |
| 20260502054526 | 52 | 265 | 0.0 | 0.0 | 0.00 | 0.00 | 0.00 | 43 | 1012.1 |
| 20260502053021 | 52 | 265 | 0.0 | 0.0 | 0.00 | 0.00 | 0.00 | 46 | 1011.8 |
| 20260502051518 | 53 | 266 | 0.0 | 0.0 | 0.00 | 0.00 | 0.00 | 48 | 1011.9 |
| 20260502050021 | 53 | 265 | 0.0 | 0.9 | 0.00 | 0.00 | 0.00 | 49 | 1011.9 |
| 20260502044516 | 53 | 258 | 0.0 | 0.0 | 0.00 | 0.00 | 0.00 | 49 | 1011.8 |
| 20260502043015 | 53 | 258 | 0.0 | 0.9 | 0.00 | 0.00 | 0.00 | 49 | 1011.8 |
| 20260502041514 | 53 | 264 | 0.0 | 0.0 | 0.00 | 0.00 | 0.00 | 46 | 1012.0 |
| 20260502040015 | 53 | 264 | 0.0 | 0.9 | 0.00 | 0.00 | 0.00 | 46 | 1011.9 |
| 20260502034506 | 54 | 264 | 0.0 | 0.0 | 0.00 | 0.00 | 0.00 | 49 | 1011.8 |
| 20260502033002 | 54 | 264 | 0.0 | 0.0 | 0.00 | 0.00 | 0.00 | 50 | 1011.8 |
| 20260502031558 | 54 | 264 | 0.0 | 0.0 | 0.00 | 0.00 | 0.00 | 50 | 1011.8 |
| 20260502030101 | 54 | 264 | 0.0 | 0.0 | 0.00 | 0.00 | 0.00 | 51 | 1011.8 |
| 20260502024554 | 55 | 264 | 0.0 | 0.0 | 0.00 | 0.00 | 0.00 | 51 | 1011.9 |
| 20260502023055 | 55 | 264 | 0.0 | 0.9 | 0.00 | 0.00 | 0.00 | 51 | 1012.1 |
| 20260502021545 | 55 | 265 | 0.0 | 0.9 | 0.00 | 0.00 | 0.00 | 51 | 1012.0 |
| 20260502020041 | 54 | 265 | 0.0 | 0.0 | 0.00 | 0.00 | 0.00 | 51 | 1011.9 |
| 20260502014537 | 54 | 265 | 0.0 | 0.9 | 0.00 | 0.00 | 0.00 | 51 | 1011.7 |
| 20260502013032 | 54 | 266 | 0.0 | 0.0 | 0.00 | 0.00 | 0.00 | 52 | 1011.7 |
| 20260502011527 | 55 | 265 | 0.0 | 0.0 | 0.00 | 0.00 | 0.00 | 53 | 1011.5 |
| 20260502010029 | 56 | 265 | 0.0 | 0.0 | 0.00 | 0.00 | 0.00 | 52 | 1011.3 |
| 20260502004527 | 57 | 266 | 0.0 | 0.0 | 0.00 | 0.00 | 0.00 | 52 | 1011.2 |
| 20260502003015 | 57 | 265 | 0.0 | 0.0 | 0.00 | 0.00 | 0.00 | 51 | 1011.1 |
| 20260502001510 | 58 | 266 | 0.0 | 0.0 | 0.00 | 0.00 | 0.00 | 50 | 1011.0 |
| 20260502000006 | 59 | 266 | 0.0 | 0.9 | 0.00 | 0.00 | 0.00 | 47 | 1011.0 |
| 20260501234502 | 60 | 265 | 0.0 | 0.9 | 0.00 | 0.00 | 0.00 | 46 | 1010.7 |
| 20260501233103 | 60 | 274 | 0.0 | 0.9 | 0.00 | 0.00 | 0.00 | 45 | 1010.7 |
| 20260501231557 | 60 | 215 | 0.0 | 7.8 | 0.00 | 0.00 | 0.00 | 45 | 1010.5 |
| 20260501230049 | 61 | 133 | 0.0 | 2.6 | 0.00 | 0.00 | 0.00 | 44 | 1010.5 |
| 20260501224544 | 62 | 222 | 0.0 | 5.2 | 0.00 | 0.00 | 0.00 | 42 | 1010.4 |
| 20260501223042 | 62 | 268 | 0.0 | 6.1 | 0.00 | 0.00 | 0.00 | 43 | 1010.3 |
| 20260501221535 | 61 | 247 | 0.0 | 4.3 | 0.00 | 0.00 | 0.00 | 43 | 1010.4 |
| 20260501220038 | 61 | 117 | 0.9 | 6.1 | 0.00 | 0.00 | 0.00 | 43 | 1010.4 |
| 20260501214529 | 62 | 229 | 1.7 | 5.2 | 0.00 | 0.00 | 0.00 | 42 | 1010.4 |
| 20260501213028 | 62 | 124 | 0.9 | 7.0 | 0.00 | 0.00 | 0.00 | 44 | 1010.4 |